sat.trackr.live / text

‹ back to catalog

THOR 6

NORAD 36033 · 2009-058B

PAYLOAD ACTIVE UNKNOWN

§ Identity

Operator
Country
NOR
Launch date
2009-10-29
Launch site
FRGUI
Launch vehicle
Mass (kg)
RCS (m²)
7.08

Purposes: comms

External: N2YO · Heavens-Above · Gunter

§ Orbital elements

Epoch: 2026-09-10T02:01:33.250368Z

Period
1,436.10 min
Inclination
0.0109°
Eccentricity
0.0001718
Mean motion
1.00271333 rev/d
Perigee alt
35,779.5 km
Apogee alt
35,794.0 km
Semi-major
42,164.9 km
B*
0.0000e+0
RAAN
154.3102°
Arg perigee
13.9334°
Mean anomaly
210.4313°
Rev number
6,185

§ Raw data

THOR 61 36033U 09058B   26253.08441262 -.00000030  00000+0  00000+0 0  99942 36033   0.0109 154.3102 0001718  13.9334 210.4313  1.00271333 61857

JSON: /api/v1/satellites/36033 · /tle

For live sub-satellite position, see the globe view (requires WebGL).

§ Visibility from observer

Set your observer location to see the next 7 days of passes ≥ 10°. The values pass through the URL so the page stays shareable.

No JS? Fill the form by hand. The geolocation button needs JavaScript.